Regional Weather Roundup
Issued by NWS Green Bay, WI

Home | Current Version | Previous Version | Graphics & Text | Print | Product List | Glossary Off
Versions: 1 2 3 4 5 6 7 8 9 10 11 12 13 14 15 16 17 18 19 20 21 22 23 24 25 26 27 28 29 30 31 32 33 34 35 36 37 38 39 40 41 42 43 44 45 46 47 48 49 50

000
ASUS43 KGRB 061859
RWRGRB

NORTH-CENTRAL AND NORTHEAST WISCONSIN REGIONAL WEATHER ROUNDUP
NATIONAL WEATHER SERVICE GREEN BAY WI
200 PM CDT WED MAY 06 2015

WIZ005-009-010>012-018-019-062000-
NORTH CENTRAL WISCONSIN

CITY           SKY/WX    TMP DP  RH WIND       PRES   REMARKS
IRONWOOD       CLOUDY    64  54  68 SE12      30.07F
MANITOWISH WTR NOT AVBL
ARBOR VITAE    NOT AVBL
EAGLE RIVER    NOT AVBL
LAND O LAKES   NOT AVBL
RHINELANDER    PTSUNNY   63  56  78 SE9       30.15F
PHILLIPS       NOT AVBL
ANTIGO         NOT AVBL
TOMAHAWK       NOT AVBL
MERRILL        NOT AVBL
$$

WIZ013-073-062000-
NORTHEAST WISCONSIN

CITY           SKY/WX    TMP DP  RH WIND       PRES   REMARKS
IRON MOUNTAIN  PTSUNNY   67  47  48 S8        30.15F
MARINETTE      PTSUNNY   57  43  58 SE6       30.20R
$$

WIZ017-030-035>037-045-062000-
CENTRAL WISCONSIN

CITY           SKY/WX    TMP DP  RH WIND       PRES   REMARKS
MEDFORD        NOT AVBL
WAUSAU         PTSUNNY   67  56  67 SE10      30.11F
MOSINEE        MOSUNNY   66  57  72 SE10G20   30.13F
MARSHFIELD     PTSUNNY   73  56  54 SE13      30.10F
WISC RAPIDS    PTSUNNY   72  55  55 S12       30.11F
STEVENS POINT  NOT AVBL
WAUPACA        NOT AVBL
SHAWANO        NOT AVBL
CLINTONVILLE   NOT AVBL
$$

WIZ038-039-048-051-062000-
FOX VALLEY

CITY           SKY/WX    TMP DP  RH WIND       PRES   REMARKS
NWS GREEN BAY  PTSUNNY   69  57  65 VRB6      30.17F
APPLETON       CLOUDY    64  55  72 SE8       30.17F HAZE
OSHKOSH        PTSUNNY   63  57  81 E9        30.15F
FOND DU LAC    CLOUDY    61  56  83 SE9       30.15F
$$

WIZ022-050-052-062000-
EAST CENTRAL WISCONSIN

CITY           SKY/WX    TMP DP  RH WIND       PRES   REMARKS
STURGEON BAY   CLOUDY    55  46  71 E8        30.23S
MANITOWOC      NOT AVBL
SHEBOYGAN      CLOUDY    56  52  86 S6        30.18F
$$

LMZ563-521-522-541>543-062000-
LAKESHORE

STATION/POSITION TIME  TEMP    WIND        PRES    VSBY  WAVE
                       AIR SEA DIR/SP/G                  HT/PER
                 (UTC) (F)     (DEG/KT/KT) (MB)    (MI)  (FT/S)
SHEBOYGAN LKSHOR 1800   47     190/  5/  6 1023.7S
KEWAUNEE LKSHORE 1800   46     130/  1/  5 1022.1F
NORTHPORT PIER   1800   45     130/  4/  8 1023.4F
SISTER BAY LKSHO 1800   60     170/  9/ 11   N/A
STURGEON BAY CG  1800   47      70/  5     1023.2      6   0
CHAMBERS ISLAND  1800   52     360/  4/  7 1022.7F
MENOMINEE LKSHOR 1800   52      40/  5/  5 1023.0F
$$



USA.gov is the U.S. government's official web portal to all federal, state and local government web resources and services.